Hourly Weather Kizatovka

Today, 25 July, Sunday

Time Temperature Precipitation Wind Pressure Humidity
00:00 +18°C° 0 mm 3 mps 754 mmHg 68%
01:00 +17°C° 0 mm 3 mps 754 mmHg 73%
02:00 +14°C° 0 mm 3 mps 754 mmHg 79%
03:00 +15°C° 0 mm 2 mps 754 mmHg 84%
04:00 +15°C° 0 mm 2 mps 755 mmHg 82%
05:00 +16°C° 0 mm 2 mps 755 mmHg 80%
06:00 +17°C° 0 mm 2 mps 756 mmHg 78%
07:00 +18°C° 0 mm 2 mps 756 mmHg 72%
08:00 +20°C° 0 mm 2 mps 756 mmHg 66%
09:00 +21°C° 0 mm 2 mps 757 mmHg 57%
10:00 +23°C° 0.1 mm 2 mps 757 mmHg 54%
11:00 +24°C° 0.1 mm 2 mps 757 mmHg 50%
12:00 +24°C° 0.1 mm 2 mps 757 mmHg 46%
13:00 +24°C° 0 mm 2 mps 757 mmHg 46%
14:00 +24°C° 0 mm 2 mps 757 mmHg 46%
15:00 +24°C° 0 mm 2 mps 758 mmHg 46%
16:00 +24°C° 0 mm 2 mps 758 mmHg 48%
17:00 +23°C° 0 mm 2 mps 758 mmHg 51%
18:00 +22°C° 0 mm 1 mps 758 mmHg 54%
19:00 +22°C° 0 mm 1 mps 758 mmHg 54%
20:00 +21°C° 0 mm 1 mps 758 mmHg 54%
21:00 +20°C° 0 mm 1 mps 759 mmHg 54%
22:00 +20°C° 0 mm 1 mps 759 mmHg 54%
23:00 +20°C° 0 mm 1 mps 759 mmHg 54%

Tomorrow, 26 July, Monday

Time Temperature Precipitation Wind Pressure Humidity
00:00 +19°C° 0 mm 1 mps 759 mmHg 54%
01:00 +19°C° 0 mm 1 mps 759 mmHg 54%
02:00 +19°C° 0 mm 1 mps 759 mmHg 54%
03:00 +19°C° 0 mm 1 mps 759 mmHg 54%
04:00 +19°C° 0 mm 1 mps 760 mmHg 54%
05:00 +19°C° 0 mm 1 mps 760 mmHg 55%
06:00 +19°C° 0 mm 1 mps 760 mmHg 55%
07:00 +20°C° 0 mm 1 mps 760 mmHg 52%
08:00 +21°C° 0 mm 1 mps 760 mmHg 49%
09:00 +22°C° 0 mm 1 mps 760 mmHg 45%
10:00 +23°C° 0 mm 1 mps 760 mmHg 42%
11:00 +24°C° 0 mm 1 mps 760 mmHg 39%
12:00 +25°C° 0 mm 1 mps 760 mmHg 36%
13:00 +25°C° 0 mm 2 mps 760 mmHg 35%
14:00 +26°C° 0 mm 2 mps 760 mmHg 35%
15:00 +26°C° 0 mm 2 mps 759 mmHg 34%
16:00 +25°C° 0 mm 2 mps 759 mmHg 38%
17:00 +25°C° 0 mm 2 mps 759 mmHg 42%
18:00 +24°C° 0 mm 2 mps 759 mmHg 46%
19:00 +23°C° 0 mm 1 mps 759 mmHg 48%
20:00 +22°C° 0 mm 1 mps 759 mmHg 49%
21:00 +20°C° 0 mm 1 mps 759 mmHg 51%
22:00 +19°C° 0 mm 1 mps 759 mmHg 54%
23:00 +19°C° 0 mm 1 mps 759 mmHg 57%

Day after tomorrow, 27 July, Tuesday

Time Temperature Precipitation Wind Pressure Humidity
00:00 +18°C° 0 mm 1 mps 759 mmHg 60%
01:00 +16°C° 0 mm 1 mps 759 mmHg 61%
02:00 +16°C° 0 mm 1 mps 759 mmHg 62%
03:00 +16°C° 0 mm 1 mps 759 mmHg 63%
04:00 +18°C° 0 mm 1 mps 759 mmHg 61%
05:00 +19°C° 0 mm 1 mps 759 mmHg 59%
06:00 +20°C° 0 mm 1 mps 759 mmHg 58%
07:00 +21°C° 0 mm 2 mps 759 mmHg 53%
08:00 +23°C° 0 mm 2 mps 759 mmHg 48%
09:00 +25°C° 0 mm 3 mps 759 mmHg 43%
10:00 +26°C° 0 mm 3 mps 758 mmHg 40%
11:00 +27°C° 0 mm 4 mps 758 mmHg 37%
12:00 +28°C° 0 mm 4 mps 758 mmHg 34%
13:00 +28°C° 0 mm 4 mps 757 mmHg 36%
14:00 +27°C° 0 mm 4 mps 757 mmHg 38%
15:00 +27°C° 0 mm 4 mps 757 mmHg 40%
16:00 +26°C° 0 mm 4 mps 757 mmHg 43%
17:00 +26°C° 0 mm 3 mps 756 mmHg 46%
18:00 +25°C° 0 mm 3 mps 756 mmHg 48%
19:00 +24°C° 0 mm 2 mps 756 mmHg 54%
20:00 +21°C° 0 mm 2 mps 756 mmHg 59%
21:00 +19°C° 0 mm 2 mps 756 mmHg 65%
22:00 +19°C° 0 mm 2 mps 756 mmHg 67%
23:00 +19°C° 0 mm 2 mps 756 mmHg 69%

28 July, Wednesday

Time Temperature Precipitation Wind Pressure Humidity
00:00 +18°C° 0 mm 2 mps 756 mmHg 71%
01:00 +18°C° 0 mm 2 mps 756 mmHg 74%
02:00 +17°C° 0 mm 2 mps 756 mmHg 76%
03:00 +16°C° 0 mm 2 mps 756 mmHg 79%
04:00 +18°C° 0 mm 1 mps 756 mmHg 76%
05:00 +19°C° 0 mm 1 mps 757 mmHg 72%
06:00 +20°C° 0 mm 1 mps 757 mmHg 69%
07:00 +21°C° 0 mm 1 mps 757 mmHg 63%
08:00 +21°C° 0 mm 0 mps 756 mmHg 58%
09:00 +22°C° 0 mm 0 mps 756 mmHg 52%
10:00 +26°C° 0 mm 1 mps 756 mmHg 48%
11:00 +27°C° 0 mm 1 mps 756 mmHg 43%
12:00 +28°C° 0 mm 2 mps 756 mmHg 38%
13:00 +29°C° 0 mm 2 mps 755 mmHg 38%
14:00 +29°C° 0 mm 2 mps 755 mmHg 37%
15:00 +29°C° 0 mm 3 mps 754 mmHg 37%
16:00 +28°C° 0 mm 2 mps 754 mmHg 40%
17:00 +27°C° 0 mm 2 mps 754 mmHg 44%
18:00 +26°C° 0 mm 1 mps 754 mmHg 47%
19:00 +25°C° 0 mm 1 mps 754 mmHg 50%
20:00 +24°C° 0 mm 1 mps 754 mmHg 53%
21:00 +22°C° 0 mm 1 mps 754 mmHg 55%
22:00 +22°C° 0 mm 1 mps 753 mmHg 57%
23:00 +21°C° 0 mm 1 mps 753 mmHg 58%

29 July, Thursday

Time Temperature Precipitation Wind Pressure Humidity
00:00 +21°C° 0 mm 1 mps 753 mmHg 59%
01:00 +21°C° 0 mm 1 mps 752 mmHg 59%
02:00 +21°C° 0 mm 1 mps 752 mmHg 58%
03:00 +20°C° 0 mm 2 mps 752 mmHg 58%
04:00 +20°C° 0 mm 2 mps 752 mmHg 62%
05:00 +20°C° 0 mm 2 mps 752 mmHg 67%
06:00 +20°C° 0 mm 2 mps 752 mmHg 71%
07:00 +20°C° 0.1 mm 2 mps 751 mmHg 73%
08:00 +20°C° 0.1 mm 2 mps 751 mmHg 76%
09:00 +20°C° 0.1 mm 2 mps 750 mmHg 78%
10:00 +22°C° 0 mm 3 mps 750 mmHg 71%
11:00 +23°C° 0 mm 5 mps 750 mmHg 64%
12:00 +26°C° 0 mm 6 mps 749 mmHg 56%
13:00 +24°C° 0.2 mm 6 mps 749 mmHg 64%
14:00 +23°C° 0.2 mm 6 mps 749 mmHg 71%
15:00 +22°C° 0.2 mm 6 mps 749 mmHg 78%
16:00 +23°C° 1 mm 5 mps 748 mmHg 79%
17:00 +23°C° 1 mm 4 mps 748 mmHg 80%
18:00 +24°C° 1 mm 3 mps 748 mmHg 82%
19:00 +23°C° 1.1 mm 2 mps 747 mmHg 85%
20:00 +21°C° 1.1 mm 2 mps 747 mmHg 87%
21:00 +21°C° 1.1 mm 1 mps 747 mmHg 90%
22:00 +21°C° 0 mm 1 mps 747 mmHg 91%
23:00 +21°C° 0 mm 1 mps 747 mmHg 92%

30 July, Friday

Time Temperature Precipitation Wind Pressure Humidity
00:00 +20°C° 0 mm 1 mps 747 mmHg 93%
01:00 +20°C° 0 mm 1 mps 747 mmHg 93%
02:00 +20°C° 0 mm 1 mps 747 mmHg 94%
03:00 +19°C° 0 mm 1 mps 747 mmHg 95%
04:00 +20°C° 0 mm 1 mps 747 mmHg 93%
05:00 +20°C° 0 mm 1 mps 748 mmHg 92%
06:00 +21°C° 0 mm 1 mps 748 mmHg 91%
07:00 +21°C° 0 mm 2 mps 748 mmHg 86%
08:00 +23°C° 0 mm 2 mps 748 mmHg 80%
09:00 +25°C° 0 mm 2 mps 749 mmHg 75%
10:00 +25°C° 0.2 mm 3 mps 749 mmHg 73%
11:00 +26°C° 0.2 mm 3 mps 749 mmHg 71%
12:00 +26°C° 0.2 mm 3 mps 749 mmHg 68%
13:00 +26°C° 0.1 mm 3 mps 749 mmHg 68%
14:00 +26°C° 0.1 mm 4 mps 749 mmHg 67%
15:00 +26°C° 0.1 mm 4 mps 750 mmHg 66%
16:00 +26°C° 0 mm 4 mps 750 mmHg 66%
17:00 +25°C° 0 mm 4 mps 750 mmHg 67%
18:00 +25°C° 0 mm 4 mps 750 mmHg 67%
19:00 +24°C° 0 mm 3 mps 751 mmHg 72%
20:00 +21°C° 0 mm 2 mps 751 mmHg 76%
21:00 +20°C° 0 mm 2 mps 751 mmHg 80%
22:00 +20°C° 0 mm 2 mps 751 mmHg 82%
23:00 +19°C° 0 mm 2 mps 751 mmHg 84%
Show more